{"data":{"norad_id":68177,"intl_designator":"2026-050L","name":"STARLINK-36668","alt_names":[],"object_type":"PAYLOAD","status":"ACTIVE","operator":null,"country":"US","launch_date":"2026-03-14","launch_site_code":"AFETR","launch_vehicle":null,"mission":null,"orbit_class":"UNKNOWN","rcs_meters":null,"size_class":null,"mass_kg":null,"dimensions":null,"purposes":["comms"],"wikipedia_slug":null,"has_3d_model":false,"image_url":null,"decayed_at":null,"tle_current":{"epoch":"2026-09-19T22:33:29.881152Z","epoch_age_seconds":104584,"freshness":"FRESH","line1":"1 68177U 26050L   26262.93992918  .00009275  00000+0  28534-3 0  9997","line2":"2 68177  53.1589  80.2409 0001211  88.2466 271.8676 15.34395939 30487","mean_motion":15.34395939,"eccentricity":0.0001211,"inclination_deg":53.1589,"raan_deg":80.2409,"arg_perigee_deg":88.2466,"mean_anomaly_deg":271.8676,"bstar":0.00028534,"rev_number":3048,"period_min":93.848006462952,"perigee_km":461.88688316676,"apogee_km":463.54373759633,"semimajor_km":6840.8523103815,"source":"CELESTRAK","updated_at":"2026-09-20T09:00:43.800530Z"}}}